Погода Ртищево

Хотите узнать прогноз погоды Ртищево? Тогда Вам сюда: Погода Ртищево

Поиск расширенной информации на нашем сайте:

Полезная информация:

Новости сайта



02.01.2020
Опубликован Долгосрочный прогноз погоды по городам России и ближнего зарубежья на январь 2020 года.
Карты: Прогноз на январь и февраль 2020 года, Сравнение прогнозируемой аномалии приземной температуры воздуха на январь 2020 года по разным моделям.




Погода Ртищево - сегодня

Время (UTC), дата Ветер
(°,м/с) 
Видим.   Явления Облачность Т
(°С)
Тd
(°С)
f(%) Тe
(°С)
Pmin
(гПа)
dP
(гПа)
Po
(мм)
O2
(г/м3)
Тmin Tmax R s Состояние
почвы
12 24.02.21 310 (СЗ) 10 км    10/0 средняя 
[Ac und]
-18.9 -24.1 63 -22  1040.3  -0.9  759  330           
18 24.02.21 220 (ЮЗ) 4000 м    10/0 средняя 
[Ac und]
-20.4 -23.7 75 -21  1038.5  -1.4  757  331           
21 24.02.21 190 (Ю) 4000 м    3/0 верхняя 
[Ci fib]
-22.4 -24.9 80 -25  1037.2  -1.5  756  334           
00 25.02.21 190 (Ю) 4000 м    10/0 средняя 
[Ac und]
-19.8 -23 76 -24  1034.9  -1.9  755  329           
03 25.02.21 190 (Ю) 4000 м  слаб. снег  10/0 средняя 
[As op]
-17.9 -19.7 86 -23  1031.8  -2.8  752  326  -23.7    0.0  52  неравномерный
сухой снег
100% 
06 25.02.21 190 (Ю) 4000 м  слаб. снег  10/0 средняя 
[As op]
-15.3 -17 87 -20  1028.5  -2.9  750  322           
09 25.02.21 200 (Ю) 5{10}  4000 м  снег  10/0 средняя 
[As op]
-12.8 -14.5 87 -18  1023.6  -4.5  747  317           
12 25.02.21 210 (ЮЗ) 4{10}  1000 м  сильн. снег  10/0 средняя 
[As op]
-11.3 -12.3 92 -15  1019.3  -4  744  314           
15 25.02.21 220 (ЮЗ) 3{11}  4000 м  дымка{снег}  10/10 300 м 
[St]
-9.2 -9.6 97 -12  1016.9  -2.1  742  310    -9.2  10     
18 25.02.21 240 (ЮЗ) 4000 м  слаб. снег  10/10 600 м 
[Ns]
-5.7 -5.9 98 -7  1015.1  -1.4  741  306           
21 25.02.21 250 (З) 4000 м  дымка{снег}  10/10 300 м 
[St]
-3.3 -3.5 99 -3  1014.6  -0.2  741  303           
00 26.02.21 280 (З) 4000 м  дымка{снег}  10/10 300 м 
[St]
-0.4 -0.6 99 -1  1014.1  -0.3  741  299           
03 26.02.21 270 (З) 0500 м  туман  ?/?  
+0.3 +0.1 99 1013.8  -0.2  741  298  -9.2    0.3  63  неравномерный
мокрый или
старый снег
100% 
06 26.02.21 240 (ЮЗ) 0500 м  туман  ?/?  
+0.7 +0.4 98 1012.9  -0.8  740  297  -4.5         
09 26.02.21 220 (ЮЗ) 0500 м  в посл. час дождь{туман}  ?/?  
+1.1 +0.9 99 -1  1011.2  -1.6  739  296           
12 26.02.21 220 (ЮЗ) 0500 м  туман{дождь}  ?/?  
+1.5 +1.3 99 -1  1008.9  -2.2  737  295           
15 26.02.21 230 (ЮЗ) 4000 м  {туман}  10/10 300 м 
[St]
+1.8 +1.6 99 1006.1  -2.7  735  294    +1.8     
18 26.02.21 260 (З) 4000 м  {туман}  10/10 600 м 
[Sc]
+3.1 +2.9 99 +1  1004.5  -1.5  734  292           
21 26.02.21 270 (З) 3{10}  4000 м    4/0 верхняя 
[Ci fib]
+2.3 +2.2 99 +1  1003.8  -0.7  734  293           
00 27.02.21 250 (З) 4000 м    5/0 верхняя 
[Ci fib]
+1.3 +1.1 99 1003.5  -0.4  733  294           
03 27.02.21 260 (З) 4000 м    8/0 средняя 
[Ac trans]
+1.3 +0.9 97 1002.3  -1.2  732  294  +0.9      53  неравномерный
мокрый или
старый снег
100% 
06 27.02.21 250 (З) 10 км    10/0 средняя 
[Ac und]
+1.7 +0.1 89 1001.6  -0.6  732  293           
09 27.02.21 270 (З) 4{10}  10 км    10/10 600 м 
[Sc]
+2.9 -0.1 81 +1  1001.4  0.1  732  292           
12 27.02.21 270 (З) 4{10}  10 км    10/0 средняя 
[Ac und]
+2.1 -0.3 84 1001  -0.4  732  292           
15 27.02.21 340 (С) 4{10}  4000 м  слаб. снег  10/10 600 м 
[Ns]
-1.5 -2.4 94 -4  1003.4  1.9  733  297    +3  0.4     
Время (UTC), дата Ветер
(°,м/с) 
Видим.   Явления Облачность Т
(°С)
Тd
(°С)
f(%) Тe
(°С)
Pmin
(гПа)
dP
(гПа)
Po
(мм)
O2
(г/м3)
Тmin Tmax R s Состояние
почвы

Для получения пояснительной информации подведите курсор к названию столбца.

ПОГОДА Ртищево - архив

Всё, что Вы хотите узнать о погоде Ртищево - удобно и подробно!

Выберите нужную дату (начиная с 1 января 2019* года) и нажмите кнопку "Найти".
Будут отображены архивные сводки погоды по пункту Ртищево, начиная с указанной даты.


Отображать данные в формате CSV (для использования в таблицах Excel)


Внимание! Наш архив погоды предназначен исключительно для личного некоммерческого использования в познавательных целях. Если Вам необходимы официальные справки о состоянии погоды (для производственных, юридических, коммерческих и т.п. целей), обращайтесь в органы Росгидромета.

*Примечание: данная дата относится к архиву по метеостанциям СССР (Россия, СНГ, Балтия).
Архив по метеостанциям Зарубежной Европы и Азии (кроме Китая) хранится 10 дней, по другим регионам земного шара (Китай, Африка, Америка, Австралия, Океания) - 1 день.

Ртищево - район местоположения метеостанции


Название, широта, долгота, высота метеостанции:
Ртищево 52.2°ш. 43.8°д. 213 м над ур. моря [Российская Федерация]

Дополнительная информация

В oтличие oт бoльшинства пoгoдных сайтoв мы публикуем пoдрoбную метеoинфoрмацию в детальнoм прoфессиoнальнoм фoрмате.

Характеристики температуры и влажнoсти вoздуха измеряются на высoте 2 м в тени вдали oт зданий и деревьев.
Скoрoсть ветра измеряется на высoте 10 м (на урoвне рoста челoвека скoрoсть ветра ниже в 1.5-2 раза). Если метеoстанция нахoдится в гoрoде или в лесу, тo скoрoсть ветра занижена на 2-4 м/с пo сравнению с oткрытым местoм. Скoрoсть ветра над акватoриями крупных рек и oзёр, а также на вершинах хoлмoв на 2-5 м/с выше, чем в oбычных услoвиях.
Атмoсфернoе давление в разных тoчках местнoсти мoжет значительнo oтличаться oт давления на метеoстанции, в зависимoсти oт услoвий рельефа (при пoдъёме на 10 м давление пoнижается примернo на 1 мм рт.ст.).